Location: Battersea Observatory
(44.4318°N, 76.3841°W)
Time: 20:43:38
(UTC-04:00)

Tiros 1 despin weight - Pass Details

Date: 28 January 2022
Orbit: 592 x 639 km, 48.2° (Epoch: 25 May)

Event Time Altitude Azimuth Distance (km) Brightness Sun altitude
Rises 20:19:28 0° 291° (WNW) 2,909 ? -33.9°
Reaches altitude 10° 20:21:46 10° 291° (WNW) 2,007 ? -34.3°
Enters shadow 20:23:26 22° 291° (WNW) 1,376 ? -34.6°
Maximum altitude 20:26:24 88° 205° (SSW) 639 - -35.1°
Drops below altitude 10° 20:31:02 10° 114° (ESE) 2,004 - -36.0°
Sets 20:33:25 0° 114° (ESE) 2,933 - -36.4°
